Flag for Germany Weather past 2 weeks in Titisee-Neustadt, Baden-Württemberg, Germany

Now
54 °F

Overcast.


Feels Like: 54 °F
Forecast: 44 / 58 °F
Wind: 2 mph from Southwest

Location: Freiburg


UV Index: 3 (Moderate)

Visibility: 16 mi


Pressure: 30.12 "Hg

Humidity: 85%

Dew point: 49 °F

Location of Titisee-NeustadtLocation

Historic Weather in Titisee-Neustadt

°F

Titisee-Neustadt temperature yesterday

Maximum temperature yesterday: 69 °F (at 6:00 PM)
Minimum temperature yesterday: 43 °F (at 7:00 AM)
Average temperature yesterday: 56 °F

Past Weeks' High & Low Weather Summary

 TemperatureHumidityPressure
High71 °F (Apr 11, 6:00 PM)97% (Apr 19, 6:00 AM)30.38 "Hg (Apr 19, 6:00 AM)
Low28 °F (Apr 16, 6:00 AM)25% (Apr 17, 6:00 PM)29.61 "Hg (Apr 20, 7:00 PM)
Average51 °F65%30.04 "Hg
* Reported Apr 9 1:00 AM — Apr 24 1:00 AM, Titisee-Neustadt, Weather by CustomWeather, © 2014

Note: Actual official high and low records may vary slightly from our data, if they occured in-between our weather recording intervals... More about our weather records

Advertising

Historic Weather Conditions — Data for Previous 24 hours

 ConditionsComfort  
Time TempWeatherWind HumidityBarometerVisibility
1:00 AM
Apr 24
54 °FOvercast.2 mph85%30.12 "Hg16 mi
12:00 AM53 °FPassing clouds.3 mph89%30.11 "Hg19 mi
10:00 PM
Apr 23
57 °FPassing clouds.2 mph76%30.08 "Hg25 mi
9:00 PM60 °FPassing clouds.2 mph65%30.06 "Hg43 mi
7:00 PM66 °FSunny.5 mph51%30.01 "Hg37 mi
6:00 PM69 °FSunny.5 mph44%30.01 "Hg28 mi
4:00 PM65 °FOvercast.2 mph63%30.05 "Hg34 mi
3:00 PM62 °FLight rain. Haze.2 mph75%30.07 "Hg19 mi
1:00 PM66 °FOvercast.2 mph54%30.08 "Hg17 mi
12:00 PM65 °FOvercast.3 mph63%30.08 "Hg19 mi
10:00 AM60 °FPassing clouds.2 mph65%30.10 "Hg28 mi
9:00 AM58 °FOvercast.1 mph68%30.10 "Hg22 mi
7:00 AM43 °FOvercast.1 mph95%30.11 "Hg10 mi
6:00 AM44 °FPassing clouds.1 mph93%30.09 "Hg14 mi
4:00 AM46 °FPassing clouds.1 mph92%30.08 "Hg17 mi
3:00 AM46 °FPassing clouds.1 mph90%30.07 "Hg13 mi
Weather by CustomWeather, © 2014

See weather overview